www.pogodaiklimat.ru

Погода и климат >> Архив погоды >> Германия >> Ufs Deutsche Bucht


ПОГОДА в Ufs Deutsche Bucht

  • Прогноз погоды в Ufs Deutsche Bucht
  • Монитор погоды в Ufs Deutsche Bucht
  • Климат города

АРХИВ ПОГОДЫ в Ufs Deutsche Bucht

Время (UTC), дата Ветер
(напр.,м/с)
 
Видим.   Явления Облачность Т
(С)
Тd
(С)
f
(%)
Тe
(С)
Тes
(С)
Комфортность P
(гПа)
Po
(гПа)
Тmin
(С)
Tmax
(С)
R
(мм)
R24
(мм)
S
(см)
22 14.02 Ю 16
{20}
10 км н/о +2.9 -3.0 65 -5 -5 1013.7 1013.7
23 14.02 ЮВ 16
{19}
10 км н/о +2.7 -3.7 63 -6 -6 1013.5 1013.5
00 15.02 ЮВ 16
{21}
10 км н/о +2.8 -3.7 62 -5 -5 1012.7 1012.7
01 15.02 ЮВ 16
{19}
10 км н/о +2.7 -3.1 66 -6 -6 1012.2 1012.2
02 15.02 ЮВ 16
{20}
10 км н/о +2.6 -3.3 65 -6 -6 1011.3 1011.3
03 15.02 ЮВ 17
{21}
10 км н/о +2.6 -3.4 65 -6 -6 1010.4 1010.4
04 15.02 ЮВ 17
{21}
10 км н/о +2.5 -3.6 64 -6 -6 1010.2 1010.2
05 15.02 Ю 15
{20}
10 км н/о +2.5 -3.4 65 -6 -6 1010.1 1010.1
06 15.02 ЮВ 14
{21}
10 км н/о +2.6 -2.9 67 -5 -5 1009.2 1009.2 +2.4 +4.0
07 15.02 Ю 16
{20}
6000 м н/о +1.5 -2.3 76 -8 -8 1008.7 1008.7
08 15.02 Ю 16
{20}
4200 м н/о +0.7 -0.9 89 -9 -9 1008.1 1008.1
09 15.02 Ю 15
{21}
2400 м н/о +1.1 -0.1 92 -8 -8 1008.1 1008.1
10 15.02 Ю 15
{20}
1900 м н/о +1.9 +1.0 94 -7 -7 1008.1 1008.1
11 15.02 Ю 13
{19}
1800 м н/о +2.0 +1.1 94 -7 -7 1008.0 1008.0
12 15.02 Ю 13
{21}
5000 м н/о +2.4 +1.5 94 -6 -6 1008.0 1008.0
13 15.02 Ю 13
{15}
4500 м н/о +2.7 +1.7 93 -6 -6 1008.0 1008.0
14 15.02 Ю 12
{16}
4700 м н/о +3.0 +2.0 93 -5 -5 1007.6 1007.6
15 15.02 Ю 12
{17}
3700 м н/о +3.2 +2.3 94 -5 -5 1007.9 1007.9
16 15.02 ЮЗ 11
{15}
3400 м н/о +3.7 +2.9 95 -4 -4 1008.4 1008.4
17 15.02 ЮЗ 10
{14}
2300 м н/о +4.5 +3.8 95 -2 -2 1009.0 1009.0
18 15.02 ЮЗ 8
{17}
10 км н/о +5.8 +4.5 91 0 0 1010.0 1010.0 +0.1 +5.8
19 15.02 З 9 10 км н/о +5.6 +3.6 87 -0 -0 1010.8 1010.8
20 15.02 З 9 10 км н/о +5.8 +2.8 81 0 0 1011.3 1011.3
21 15.02 З 6
{16}
10 км н/о +4.8 +1.3 78 -0 -0 1011.9 1011.9
22 15.02 З 9 10 км н/о +5.6 +1.7 76 -0 -0 1012.3 1012.3
23 15.02 З 9 10 км н/о +5.6 +1.6 75 -0 -0 1012.9 1012.9
00 16.02 ЮЗ 9
{16}
10 км н/о +5.7 +1.3 73 0 0 1013.6 1013.6
01 16.02 ЮЗ 7 10 км н/о +5.5 +1.9 78 0 0 1014.2 1014.2
02 16.02 З 9 10 км н/о +5.7 +1.8 76 -0 -0 1014.8 1014.8
03 16.02 З 10
{14}
10 км н/о +5.7 +1.0 72 -0 -0 1015.1 1015.1
04 16.02 З 10
{14}
10 км н/о +5.5 +1.2 74 -1 -1 1015.6 1015.6
05 16.02 З 11
{14}
10 км н/о +5.5 +1.6 76 -1 -1 1016.4 1016.4
06 16.02 З 10
{14}
10 км н/о +5.4 +1.8 78 -1 -1 1016.9 1016.9 +3.0 +5.9
07 16.02 З 9
{13}
10 км н/о +5.2 +1.9 79 -1 -1 1017.7 1017.7
08 16.02 З 10 10 км н/о +5.2 +1.7 78 -1 -1 1018.2 1018.2
09 16.02 З 10
{13}
10 км н/о +5.2 +1.7 78 -1 -1 1019.0 1019.0
10 16.02 З 10 10 км н/о +5.2 +1.8 79 -1 -1 1019.8 1019.8
11 16.02 З 10 2100 м н/о +5.3 +2.0 79 -1 -1 1020.7 1020.7
12 16.02 З 9
{13}
200 м н/о +5.3 +2.4 82 -1 -1 1021.5 1021.5
13 16.02 З 9 9000 м н/о +5.2 +2.2 81 -1 -1 1022.1 1022.1
14 16.02 З 10
{13}
10 км н/о +5.3 +2.5 82 -1 -1 1022.5 1022.5
15 16.02 З 10
{14}
10 км н/о +5.4 +2.6 82 -1 -1 1022.9 1022.9
16 16.02 З 7
{13}
10 км н/о +5.2 +2.7 84 -0 -0 1023.2 1023.2
17 16.02 З 8 10 км н/о +5.2 +2.7 84 -1 -1 1023.8 1023.8
18 16.02 З 8
{14}
10 км н/о +5.0 +2.8 86 -1 -1 1024.5 1024.5 +5.0 +5.5
19 16.02 З 7 10 км н/о +4.9 +2.5 84 -1 -1 1024.5 1024.5
20 16.02 З 6 10 км н/о +4.9 +2.6 85 -0 -0 1024.7 1024.7
21 16.02 З 5 10 км н/о +4.8 +2.9 87 0 0 1024.8 1024.8
22 16.02 З 5 10 км н/о +4.8 +2.6 86 0 0 1024.8 1024.8
23 16.02 З 5 10 км н/о +4.8 +2.4 84 0 0 1025.2 1025.2
00 17.02 З 4 10 км н/о +4.8 +2.6 86 +1 +1 1025.2 1025.2
01 17.02 ЮЗ 4 10 км н/о +4.7 +2.6 86 0 0 1025.0 1025.0
02 17.02 ЮЗ 4 10 км н/о +4.7 +2.4 85 0 0 1025.2 1025.2
03 17.02 З 4 10 км н/о +4.4 +2.3 86 0 0 1025.0 1025.0
04 17.02 ЮЗ 2 10 км н/о +4.4 +2.3 86 +2 +2 1024.9 1024.9
05 17.02 ЮЗ 3 10 км н/о +4.0 +2.3 89 0 0 1024.7 1024.7
06 17.02 Ю 4 10 км н/о +4.0 +2.5 90 -1 -1 1024.3 1024.3 +3.8 +5.2
07 17.02 Ю 5 9000 м н/о +3.6 +2.3 91 -2 -2 1024.6 1024.6
08 17.02 Ю 5 5000 м н/о +2.8 +1.6 92 -3 -3 1024.6 1024.6
09 17.02 Ю 5 3100 м н/о +2.1 +1.3 94 -4 -4 1024.7 1024.7
10 17.02 Ю 4 9000 м н/о +2.5 +1.3 92 -2 -2 1024.6 1024.6
11 17.02 Ю 4 9000 м н/о +2.0 +0.8 92 -3 -3 1024.9 1024.9
12 17.02 Ю 2 10 км н/о +2.2 +0.9 91 -1 -1 1024.9 1024.9
13 17.02 ЮЗ 2 10 км н/о +2.1 +0.8 91 -1 -1 1024.8 1024.8
14 17.02 ЮЗ 1 10 км н/о +1.7 +0.5 92 -0 -0 1024.7 1024.7
15 17.02 ЮВ 3 10 км н/о +1.4 +0.2 92 -3 -3 1025.0 1025.0
16 17.02 Ю 3 10 км н/о +1.4 +0.2 92 -3 -3 1025.1 1025.1
17 17.02 В 2 10 км н/о +1.2 +0.1 92 -2 -2 1025.4 1025.4
18 17.02 ЮВ 3 9000 м н/о +1.2 0.0 92 -3 -3 1025.9 1025.9 +1.0 +4.1
19 17.02 Ю 5 4500 м н/о +1.2 +0.1 92 -5 -5 1026.2 1026.2
20 17.02 Ю 5 3000 м н/о +1.2 +0.2 93 -5 -5 1026.1 1026.1
21 17.02 Ю 5 2600 м н/о +1.3 +0.4 94 -5 -5 1026.3 1026.3
22 17.02 Ю 5 700 м н/о +0.9 +0.1 94 -5 -5 1026.5 1026.5
23 17.02 Ю 5 900 м н/о +1.1 +0.5 96 -5 -5 1026.3 1026.3
00 18.02 Ю 5 1100 м н/о +0.8 +0.2 96 -5 -5 1026.3 1026.3
01 18.02 Ю 5 200 м н/о +0.7 +0.2 96 -5 -5 1026.5 1026.5
02 18.02 Ю 6 400 м н/о +0.9 +0.4 96 -6 -6 1026.5 1026.5
03 18.02 Ю 5 2300 м н/о +1.8 +1.3 96 -4 -4 1026.5 1026.5
04 18.02 Ю 6 3200 м н/о +1.8 +1.1 95 -5 -5 1026.4 1026.4
05 18.02 Ю 7 7000 м н/о +2.8 +1.5 91 -4 -4 1026.2 1026.2
06 18.02 Ю 7 7000 м н/о +2.7 +0.8 87 -4 -4 1026.3 1026.3 +0.3 +2.8
07 18.02 Ю 8 7000 м н/о +2.8 +0.5 85 -4 -4 1026.4 1026.4
08 18.02 Ю 7 8000 м н/о +2.8 +0.3 84 -3 -3 1026.3 1026.3
09 18.02 Ю 8 9000 м н/о +2.7 -0.8 78 -4 -4 1026.2 1026.2
10 18.02 Ю 7 9000 м н/о +2.6 -0.8 78 -4 -4 1026.2 1026.2
11 18.02 Ю 8 7000 м н/о +2.9 -1.2 74 -3 -3 1026.2 1026.2
12 18.02 Ю 7 10 км н/о +3.0 -0.7 77 -3 -3 1025.5 1025.5
13 18.02 Ю 6 10 км н/о +3.4 -0.4 76 -2 -2 1025.1 1025.1
14 18.02 Ю 6 10 км н/о +3.7 -0.5 74 -2 -2 1024.8 1024.8
15 18.02 Ю 6 10 км н/о +4.1 -0.3 73 -1 -1 1024.6 1024.6
16 18.02 Ю 6 10 км н/о +4.4 -0.2 72 -1 -1 1024.5 1024.5
17 18.02 ЮЗ 7 10 км н/о +4.3 +0.2 75 -1 -1 1024.3 1024.3
18 18.02 Ю 6 10 км н/о +4.3 +0.5 76 -1 -1 1024.1 1024.1 +2.5 +4.6
19 18.02 Ю 7 10 км н/о +4.3 +0.5 76 -1 -1 1023.8 1023.8
20 18.02 ЮЗ 6 9000 м н/о +4.2 +0.9 79 -1 -1 1023.3 1023.3
21 18.02 ЮЗ 6 9000 м н/о +4.2 +1.2 81 -1 -1 1023.0 1023.0
22 18.02 ЮЗ 5 8000 м н/о +4.2 +1.1 80 -1 -1 1022.9 1022.9
23 18.02 ЮЗ 5 7000 м н/о +4.2 +1.3 81 -1 -1 1022.4 1022.4
00 19.02 ЮЗ 6 6000 м н/о +4.1 +1.6 84 -1 -1 1021.8 1021.8
01 19.02 ЮЗ 7 5000 м н/о +4.2 +1.8 84 -2 -2 1021.2 1021.2
02 19.02 ЮЗ 6 5000 м н/о +4.1 +1.9 86 -1 -1 1020.9 1020.9
03 19.02 ЮЗ 5 4600 м н/о +4.1 +2.1 87 -1 -1 1020.5 1020.5
04 19.02 ЮЗ 6 4400 м н/о +4.0 +2.1 87 -2 -2 1020.1 1020.1
05 19.02 ЮЗ 5 5000 м н/о +3.9 +1.9 87 -1 -1 1019.9 1019.9
06 19.02 Ю 5 4900 м н/о +3.7 +1.7 87 -1 -1 1019.9 1019.9 +3.5 +4.4
07 19.02 Ю 5 6000 м н/о +3.7 +1.2 84 -1 -1 1020.0 1020.0
08 19.02 Ю 5 6000 м н/о +3.6 +1.0 83 -1 -1 1020.1 1020.1
09 19.02 Ю 6 5000 м н/о +3.3 +0.9 84 -2 -2 1019.5 1019.5
10 19.02 ЮЗ 5 5000 м н/о +3.1 +0.7 84 -2 -2 1019.5 1019.5
11 19.02 ЮЗ 6 5000 м н/о +3.0 +0.7 85 -3 -3 1019.3 1019.3
12 19.02 ЮЗ 5 5000 м н/о +3.1 +1.0 86 -2 -2 1019.2 1019.2
13 19.02 ЮЗ 5 5000 м н/о +3.2 +0.9 85 -2 -2 1018.9 1018.9
14 19.02 ЮЗ 4 5000 м н/о +3.3 +1.1 85 -1 -1 1018.9 1018.9
15 19.02 ЮЗ 3 5000 м н/о +3.3 +1.1 85 -1 -1 1019.0 1019.0
16 19.02 ЮЗ 2 5000 м н/о +3.3 +1.1 85 0 0 1019.0 1019.0
17 19.02 ЮЗ 1 5000 м н/о +3.3 +1.1 85 +2 +2 1019.2 1019.2
18 19.02 Ю 1 5000 м н/о +3.3 +1.0 85 +2 +2 1019.3 1019.3 +2.9 +4.0
19 19.02 ЮЗ 1 5000 м н/о +3.3 +1.1 85 +2 +2 1019.6 1019.6
20 19.02 штиль 0 5000 м н/о +3.3 +1.1 85 +2 +2 1019.8 1019.8
21 19.02 штиль 0 4800 м н/о +3.3 +1.1 85 +2 +2 1019.6 1019.6
22 19.02 штиль 0 5000 м н/о +3.3 +1.0 85 +2 +2 1019.5 1019.5
23 19.02 СВ 1 4000 м н/о +3.5 +1.2 85 +2 +2 1019.4 1019.4
00 20.02 штиль 0 4800 м н/о +3.4 +1.0 84 +2 +2 1019.5 1019.5
01 20.02 В 2 4200 м н/о +3.4 +1.1 85 0 0 1019.3 1019.3
02 20.02 ЮВ 2 4600 м н/о +3.6 +1.3 85 +1 +1 1019.4 1019.4
03 20.02 ЮВ 1 4500 м н/о +3.7 +1.3 84 +2 +2 1019.7 1019.7
04 20.02 ЮВ 2 4100 м н/о +3.7 +1.4 85 +1 +1 1019.7 1019.7
05 20.02 ЮВ 3 3800 м н/о +3.8 +1.6 86 0 0 1019.9 1019.9
06 20.02 ЮВ 2 3500 м н/о +3.7 +1.5 86 +1 +1 1020.0 1020.0 +3.2 +3.8
07 20.02 ЮВ 3 3800 м н/о +3.8 +1.4 84 0 0 1020.3 1020.3
08 20.02 ЮВ 5 4300 м н/о +3.6 +1.0 83 -1 -1 1020.4 1020.4
09 20.02 ЮВ 6 5000 м н/о +3.6 +0.4 80 -2 -2 1020.7 1020.7
10 20.02 ЮВ 5 4300 м н/о +3.8 +0.7 80 -1 -1 1020.9 1020.9
11 20.02 ЮВ 6 8000 м н/о +3.8 0.0 76 -2 -2 1021.3 1021.3
12 20.02 ЮВ 3 8000 м н/о +3.7 -0.8 72 0 0 1021.7 1021.7
13 20.02 В 3 н/о н/о +4.7 -0.3 70 +1 +1 1021.7 1021.7
14 20.02 В 4 н/о н/о +3.6 -0.7 73 -1 -1 1021.9 1021.9
15 20.02 В 4 8000 м н/о +3.4 -0.3 77 -1 -1 1022.1 1022.1
16 20.02 В 4 7000 м н/о +3.5 -0.3 76 -1 -1 1022.5 1022.5
17 20.02 В 4 9000 м н/о +3.7 -0.7 73 -1 -1 1023.1 1023.1
18 20.02 СВ 5 5000 м н/о +3.8 +0.8 81 -1 -1 1023.9 1023.9 +3.4 +5.0
19 20.02 В 9 10 км н/о +3.4 -2.9 63 -3 -3 1024.6 1024.6
20 20.02 В 8 10 км н/о +3.1 -1.8 70 -3 -3 1025.2 1025.2
21 20.02 В 8 10 км н/о +2.9 -1.7 72 -3 -3 1025.7 1025.7
22 20.02 В 7 10 км н/о +2.7 -1.7 73 -3 -3 1026.1 1026.1
23 20.02 В 7 10 км н/о +2.7 -2.5 69 -3 -3 1026.5 1026.5
00 21.02 В 6 10 км н/о +2.6 -2.9 67 -3 -3 1026.6 1026.6
01 21.02 В 7 10 км н/о +2.5 -3.1 67 -3 -3 1026.6 1026.6
02 21.02 В 7 10 км н/о +2.4 -2.9 68 -4 -4 1026.9 1026.9
03 21.02 В 5 10 км н/о +2.3 -2.8 69 -3 -3 1026.9 1026.9
04 21.02 В 5 10 км н/о +2.1 -2.9 69 -3 -3 1027.3 1027.3
05 21.02 В 4 10 км н/о +1.8 -2.8 71 -3 -3 1027.0 1027.0
06 21.02 В 4 10 км н/о +2.0 -2.7 71 -3 -3 1027.3 1027.3 +1.8 +4.0
07 21.02 В 4 10 км н/о +2.1 -2.4 72 -3 -3 1027.4 1027.4
08 21.02 В 4 10 км н/о +2.2 -3.2 67 -2 -2 1027.8 1027.8
09 21.02 В 4 10 км н/о +2.2 -2.9 69 -2 -2 1028.1 1028.1
10 21.02 В 5 10 км н/о +2.2 -3.1 68 -3 -3 1028.4 1028.4
11 21.02 В 5 10 км н/о +2.3 -2.7 70 -3 -3 1028.5 1028.5
12 21.02 В 5 10 км н/о +2.4 -3.7 64 -3 -3 1028.5 1028.5
13 21.02 В 4 10 км н/о +2.4 -3.0 67 -2 -2 1028.2 1028.2
14 21.02 В 4 500 м н/о +2.4 -3.4 66 -2 -2 1027.7 1027.7
15 21.02 В 4 10 км н/о +2.4 -3.8 64 -2 -2 1027.4 1027.4
16 21.02 В 3 10 км н/о +2.5 -4.2 61 -1 -1 1027.4 1027.4
17 21.02 В 3 10 км н/о +2.5 -3.4 65 -1 -1 1027.6 1027.6
18 21.02 В 3 10 км н/о +2.6 -3.6 64 -1 -1 1028.0 1028.0 +1.8 +2.6
19 21.02 В 3 10 км н/о +2.6 -3.9 62 -1 -1 1028.3 1028.3
20 21.02 В 3 10 км н/о +2.6 -3.6 64 -1 -1 1028.6 1028.6
21 21.02 В 3 10 км н/о +2.7 -3.5 64 -1 -1 1028.8 1028.8

 

Местоположение метеостанции Ufs Deutsche Bucht (Германия): широта 54.18 долгота 7.43 высота над уровнем моря 3 м.

В архиве по умолчанию представлена погода в Ufs Deutsche Bucht за последнюю неделю. Архивные данные за месяц целиком и за предыдущие месяцы, начиная с января 2011 года, Вы можете получить, выбрав интересующий диапазон дат из раскрывающегося списка и нажав кнопку "Ввод!".

Внимание! Время в таблицах - всемирное. Для получения местного времени необходимо прибавить поправку, которая в Ufs Deutsche Bucht равна 1 ч.

Смотрите также архив погоды в соседних городах и на ближайших метеорологических станциях:

Погода в Helgoland (Германия) (31 км)
Погода в Norderney Island (Германия) (54 км)
Погода в Leuchtturm Alte Weser (Германия) (57 км)
Погода в Ufs Tw Ems (Германия) (70 км)
Погода в Wittmundhaven (Германия) (72 км)
Погода в St Peter-Ording (Германия) (78 км)
Погода в Cuxhaven (Германия) (90 км)
Погода в Emden-Flugplatz (Германия) (90 км)
Погода в Nordholz (Германия) (93 км)
Погода в Huibertgat (Нидерланды) (96 км)

Пояснения к столбцам:

Ветер - указаны скорость ветра в м/с - средняя за 10 мин, порывы в срок и между сроками (в фигурных скобках) и направление, откуда дует ветер: С - северный, СВ - северо-восточный, В - восточный, ЮВ - юго-восточный, Ю - южный, ЮЗ - юго-западный, З - западный, СЗ - северо-западный.
Видимость - горизонтальная дальность видимости в метрах или километрах. При видимости от 1 до 10 км при отсутствии осадков обычно наблюдается дымка, при ухудшении видимости до 1 км и менее - туман. В сухую погоду видимость может ухудшаться дымом, пылью или мглою.
Явления - указаны атмосферные явления, наблюдавшиеся в срок или в последний час перед сроком; фигурными скобками обозначены явления, наблюдавшиеся между сроками (за 1-3 часа до срока); квадратными скобками обозначены град или гололедные отложения с указанием их диаметра в мм.
Облачность - указаны через наклонную черту общая и нижняя облачность в баллах и высота нижней границы облаков в метрах; квадратными скобками обозначены формы облаков: Ci - перистые, Cs - перисто-слоистые, Cc - перисто-кучевые, Ac - высококучевые, As - высокослоистые, Sc - слоисто-кучевые, Ns - слоисто-дождевые, Cu - кучевые, Cb - кучево-дождевые. Подробнее классификацию облаков см. в Атласе облаков (PDF).
T - Температура воздуха - температура, измеренная на высоте 2 м над землей.
Td - Температура точки росы - температура, при понижении до которой содержащийся в воздухе водяной пар достигнет насыщения.
f - Относительная влажность воздуха - влажноcть воздуха, измеренная на высоте 2 м над землей.
Te - Эффективная температура - температура, которую ощущает одетый по сезону человек в тени. Характеристика душности погоды. При расчете учитывается влияние влажности воздуха и скорости ветра на теплоощущения человека.
Tes - Эффективная температура на солнце - температура, которую ощущает человек, с поправкой на солнечный нагрев. Характеристика знойности погоды. Зависит от высоты солнца над горизонтом, облачности и скорости ветра. Ночью, в пасмурную погоду, а также при ветре 12 м/с и более поправка равна нулю.
P - Атмосферное давление - приведенное к уровню моря атмосферное давление.
Po - Атмосферное давление - измеренное на уровне метеостанции атмосферное давление.
Tmin - Минимальная температура - минимум температуры воздуха на высоте 2 м над землей.
Tmax - Максимальная температура - максимум температуры воздуха на высоте 2 м над землей.
R - Количество осадков - Количество выпавших осадков за период времени, мм. При наведении курсора мыши на число - период времени, за который выпало указанное количество осадков.
R24 - Количество осадков - Количество выпавших осадков за 24 часа, мм.
S - Снежный покров - Высота снежного покрова, см. При наведении курсора мыши на число - состояние снежного покрова и степень покрытия местности в баллах.